"2009-02-14 00:00:30",628190,9.34,171,3.058,0.634,1.923,98.38702,-4.809,-3.6,74.33,0,109.3,13.69,-4.07,133.0
"2009-02-14 00:01:00",628191,9.42,174.9,4.343,0.555,2.193,98.38769,-4.807,-3.587,74.34,0,109.3,13.69,-4.07,136.9
"2009-02-14 00:01:30",628192,9.75,172.4,4.43,0.568,2.298,98.38769,-4.807,-3.562,74.33,0,109.3,13.69,-4.07,134.4
"2009-02-14 00:02:00",628193,9.45,174,3.468,0.56,2.099,98.38908,-4.804,-3.605,74.29,0,109.3,13.69,-4.07,136.0
"2009-02-14 00:02:30",628194,9.51,172.7,3.571,0.722,2.031,98.39048,-4.8,-3.588,74.28,0,109.3,13.69,-4.07,134.7
"2009-02-14 00:03:00",628195,9.48,170.3,4.318,0.579,2.179,98.38992,-4.802,-3.604,74.22,0,109.3,13.69,-4.07,132.3
"2009-02-14 00:03:30",628196,8.9,173.7,3.578,0.738,2.199,98.39021,-4.801,-3.595,74.22,0,109.3,13.69,-4.07,135.7
"2009-02-14 00:04:00",628197,9.37,176.5,2.115,0.74,1.99,98.39103,-4.799,-3.606,74.3,0,109.3,13.69,-4.06,138.5
"2009-02-14 00:04:30",628198,9.46,176.2,2.982,0.815,1.959,98.39159,-4.797,-3.61,74.3,0,109.3,13.69,-4.06,138.2
"2009-02-14 00:05:00",628199,9.82,176.2,3.061,0.753,1.995,98.38845,-4.805,-3.611,74.26,0,109.3,13.69,-4.07,138.2
"2009-02-14 00:05:30",628200,9.75,175.5,2.563,0.757,2.192,98.37854,-4.831,-3.617,74.31,0,109.3,13.69,-4.10,137.5
"2009-02-14 00:06:00",628201,9.28,173.4,3.121,0.548,2.046,98.37571,-4.838,-3.621,74.36,0,109.3,13.69,-4.10,135.4
"2009-02-14 00:06:30",628202,8.94,175.4,3.982,0.54,2.166,98.37485,-4.84,-3.608,74.44,0,109.3,13.69,-4.11,137.4
"2009-02-14 00:07:00",628203,8.52,176.4,4.472,0.648,2.356,98.37428,-4.841,-3.62,74.54,0,109.3,13.69,-4.11,138.4
"2009-02-14 00:07:30",628204,8.43,179.6,3.066,0.655,2.221,98.3757,-4.838,-3.619,74.7,0,109.3,13.69,-4.10,141.6
"2009-02-14 00:08:00",628205,8.92,176.3,3.955,0.544,2.062,98.37795,-4.832,-3.611,74.8,0,109.3,13.69,-4.10,138.3
"2009-02-14 00:08:30",628206,8.47,176.6,5.045,0.541,2.032,98.37852,-4.831,-3.623,74.77,0,109.3,13.7,-4.10,138.6
"2009-02-14 00:09:00",628207,8.29,180.1,3.552,0.657,2,98.38248,-4.821,-3.633,74.86,0,109.3,13.7,-4.09,142.1
"2009-02-14 00:09:30",628208,8.28,179.6,3.236,0.664,2.141,98.39352,-4.793,-3.624,75,0,109.3,13.7,-4.06,141.6
"2009-02-14 00:10:00",628209,8.29,180.6,2.681,0.632,1.94,98.39577,-4.787,-3.62,75.18,0,109.2,13.7,-4.05,142.6
"2009-02-14 00:10:30",628210,8.29,180.4,3.751,0.537,1.864,98.398,-4.781,-3.592,75.26,0,109.3,13.7,-4.05,142.4
"2009-02-14 00:11:00",628211,8.41,179.6,3.982,0.548,1.881,98.39941,-4.778,-3.592,75.09,0,109.3,13.7,-4.04,141.6
"2009-02-14 00:11:30",628212,8.67,176.9,4.082,0.586,1.715,98.39912,-4.778,-3.595,74.89,0,109.3,13.7,-4.04,138.9
"2009-02-14 00:12:00",628213,8.7,178.7,3.644,0.512,1.685,98.39884,-4.779,-3.582,74.69,0,109.2,13.7,-4.04,140.7
"2009-02-14 00:12:30",628214,8.96,183.6,4.026,0.635,1.697,98.40024,-4.775,-3.578,74.79,0,109.3,13.7,-4.04,145.6
"2009-02-14 00:13:00",628215,9.02,183.2,3.957,0.568,1.708,98.40024,-4.775,-3.607,74.93,0,109.3,13.7,-4.04,145.2
"2009-02-14 00:13:30",628216,8.91,181.8,4.035,0.419,1.875,98.40108,-4.773,-3.604,75.08,0,109.3,13.7,-4.04,143.8
"2009-02-14 00:14:00",628217,8.91,181.5,3.788,0.458,1.822,98.40136,-4.773,-3.611,75.32,0,109.2,13.7,-4.04,143.5
"2009-02-14 00:14:30",628218,8.92,181.8,4.401,0.617,1.886,98.40079,-4.774,-3.583,75.31,0,109.2,13.7,-4.04,143.8
"2009-02-14 00:15:00",628219,8.87,177.9,3.357,0.683,1.636,98.40108,-4.773,-3.586,75.4,0,109.3,13.7,-4.04,139.9
"2009-02-14 00:15:30",628220,9.16,177,3.531,0.651,1.593,98.40023,-4.775,-3.613,74.92,0,109.2,13.7,-4.04,139.0
"2009-02-14 00:16:00",628221,9.32,177.2,3.208,0.589,1.868,98.3886,-4.805,-3.591,74.55,0,109.2,13.7,-4.07,139.2
"2009-02-14 00:16:30",628222,9.38,175.2,4.39,0.565,1.91,98.3767,-4.835,-3.606,74.29,0,109.3,13.7,-4.10,137.2
"2009-02-14 00:17:00",628223,9.32,175.4,3.651,0.69,1.748,98.36848,-4.856,-3.626,74.19,0,109.2,13.7,-4.12,137.4
"2009-02-14 00:17:30",628224,9.3,173.1,4.409,0.607,2.093,98.36734,-4.859,-3.626,74.24,0,109.2,13.7,-4.12,135.1
"2009-02-14 00:18:00",628225,9.47,174,2.499,0.617,1.853,98.36734,-4.859,-3.648,74.29,0,109.2,13.7,-4.12,136.0
"2009-02-14 00:18:30",628226,9.16,171.2,3.469,0.636,1.814,98.36678,-4.861,-3.634,74.26,0,109.3,13.7,-4.13,133.2
"2009-02-14 00:19:00",628227,9.14,172.5,3.696,0.667,1.901,98.36111,-4.875,-3.66,74.18,0,109.2,13.7,-4.14,134.5
"2009-02-14 00:19:30",628228,9.08,173.3,3.311,0.675,1.961,98.35034,-4.902,-3.663,74.24,0,109.2,13.7,-4.17,135.3
"2009-02-14 00:20:00",628229,8.84,176,3.278,0.634,2.009,98.35006,-4.903,-3.674,74.42,0,109.2,13.69,-4.17,138.0
"2009-02-14 00:20:30",628230,9.47,172.7,4.539,0.383,2.015,98.34949,-4.905,-3.665,74.69,0,109.2,13.7,-4.17,134.7
"2009-02-14 00:21:00",628231,9.29,172.3,3.65,0.539,1.936,98.34807,-4.908,-3.669,74.47,0,109.2,13.7,-4.17,134.3
"2009-02-14 00:21:30",628232,9.22,174.1,3.822,0.634,2.016,98.33985,-4.929,-3.683,74.43,0,109.2,13.7,-4.19,136.1
"2009-02-14 00:22:00",628233,9.48,172.3,3.192,0.518,2.042,98.33334,-4.946,-3.694,74.49,0,109.2,13.7,-4.21,134.3
"2009-02-14 00:22:30",628234,9.44,172.6,3.962,0.516,1.918,98.33334,-4.946,-3.694,74.41,0,109.2,13.7,-4.21,134.6
"2009-02-14 00:23:00",628235,9.48,173.7,3.838,0.645,2.142,98.33334,-4.946,-3.705,74.41,0,109.2,13.7,-4.21,135.7
"2009-02-14 00:23:30",628236,9.54,175,4.079,0.625,2.304,98.33192,-4.949,-3.71,74.49,0,109.2,13.7,-4.21,137.0
"2009-02-14 00:24:00",628237,10,174.8,3.249,0.534,2.073,98.3203,-4.979,-3.718,74.42,0,109.2,13.7,-4.24,136.8
"2009-02-14 00:24:30",628238,9.84,176.9,4.086,0.542,2.263,98.31548,-4.991,-3.733,74.27,0,109.2,13.7,-4.26,138.9
"2009-02-14 00:25:00",628239,10.07,174.5,3.873,0.578,2.263,98.31576,-4.991,-3.722,74.27,0,109.2,13.71,-4.26,136.5
"2009-02-14 00:25:30",628240,9.97,176,3.685,0.587,2.306,98.31236,-4.999,-3.752,74.21,0,109.2,13.71,-4.26,138.0
"2009-02-14 00:26:00",628241,9.69,177.4,3.597,0.525,2.332,98.30555,-5.016,-3.752,74.29,0,109.2,13.71,-4.28,139.4
"2009-02-14 00:26:30",628242,9.85,175.3,4.052,0.537,2.311,98.30016,-5.03,-3.753,74.38,0,109.2,13.71,-4.30,137.3
"2009-02-14 00:27:00",628243,10.01,174.6,4.105,0.526,2.246,98.29932,-5.032,-3.756,74.31,0,109.2,13.71,-4.30,136.6
"2009-02-14 00:27:30",628244,9.99,175.7,4.178,0.551,2.321,98.30015,-5.03,-3.768,74.29,0,109.2,13.71,-4.30,137.7
"2009-02-14 00:28:00",628245,9.93,176.2,3.599,0.336,2.542,98.29932,-5.032,-3.772,74.46,0,109.2,13.71,-4.30,138.2
"2009-02-14 00:28:30",628246,9.92,176.3,4.262,0.488,2.435,98.29902,-5.033,-3.788,74.48,0,109.2,13.71,-4.30,138.3
"2009-02-14 00:29:00",628247,9.87,176.9,4.183,0.509,2.441,98.30125,-5.027,-3.797,74.47,0,109.2,13.71,-4.29,138.9
"2009-02-14 00:29:30",628248,9.82,176.4,4.144,0.561,2.504,98.29955,-5.032,-3.789,74.53,0,109.2,13.71,-4.30,138.4
"2009-02-14 00:30:00",628249,10.05,176.8,3.855,0.496,2.351,98.29668,-5.039,-3.782,74.52,0,109.2,13.71,-4.30,138.8
"2009-02-14 00:30:30",628250,9.7,176.6,3.528,0.737,2.135,98.28987,-5.056,-3.792,74.54,0,109.2,13.71,-4.32,138.6
"2009-02-14 00:31:00",628251,9.74,176.4,3.823,0.557,2.258,98.28844,-5.06,-3.817,74.59,0,109.2,13.71,-4.33,138.4
"2009-02-14 00:31:30",628252,10,175.5,3.684,0.537,2.359,98.28844,-5.06,-3.829,74.61,0,109.2,13.71,-4.33,137.5
"2009-02-14 00:32:00",628253,10.42,176.4,3.361,0.528,2.248,98.29012,-5.056,-3.846,74.64,0,109.2,13.71,-4.32,138.4
"2009-02-14 00:32:30",628254,10.19,176.3,3.754,0.574,2.318,98.28674,-5.064,-3.831,74.74,0,109.2,13.71,-4.33,138.3
"2009-02-14 00:33:00",628255,10.42,176,4.53,0.61,2.307,98.28751,-5.062,-3.836,74.77,0,109.2,13.71,-4.33,138.0
"2009-02-14 00:33:30",628256,10.21,175.6,3.337,0.678,2.359,98.28268,-5.075,-3.845,74.82,0,109.2,13.71,-4.34,137.6
"2009-02-14 00:34:00",628257,10.53,174.8,3.811,0.367,2.345,98.27535,-5.093,-3.826,74.82,0,109.2,13.71,-4.36,136.8
"2009-02-14 00:34:30",628258,10.38,175,3.751,0.671,2.381,98.2773,-5.088,-3.827,74.78,0,109.2,13.71,-4.35,137.0
"2009-02-14 00:35:00",628259,10.42,173.6,3.475,0.645,2.241,98.27895,-5.084,-3.864,74.76,0,109.2,13.71,-4.35,135.6
"2009-02-14 00:35:30",628260,10.12,174.5,3.795,0.581,2.43,98.28007,-5.081,-3.861,74.68,0,109.2,13.71,-4.35,136.5
"2009-02-14 00:36:00",628261,10.15,173.9,3.154,0.558,2.342,98.28118,-5.079,-3.851,74.63,0,109.2,13.71,-4.34,135.9
"2009-02-14 00:36:30",628262,9.96,173.2,3.644,0.565,2.273,98.28035,-5.081,-3.846,74.64,0,109.2,13.7,-4.35,135.2
"2009-02-14 00:37:00",628263,10.02,172.8,4.029,0.47,2.409,98.28174,-5.077,-3.845,74.61,0,109.2,13.71,-4.34,134.8
"2009-02-14 00:37:30",628264,9.74,174.4,3.943,0.631,2.688,98.28201,-5.076,-3.848,74.58,0,109.2,13.71,-4.34,136.4
"2009-02-14 00:38:00",628265,9.85,174.5,3.217,0.605,2.344,98.28201,-5.076,-3.86,74.39,0,109.2,13.71,-4.34,136.5
"2009-02-14 00:38:30",628266,9.91,174.3,3.593,0.55,2.33,98.28201,-5.076,-3.861,74.19,0,109.2,13.71,-4.34,136.3
"2009-02-14 00:39:00",628267,9.92,174.7,3.302,0.624,2.258,98.28286,-5.074,-3.86,73.86,0,109.2,13.71,-4.34,136.7
"2009-02-14 00:39:30",628268,10.03,174.6,3.058,0.662,2.393,98.28796,-5.061,-3.871,73.5,0,109.2,13.71,-4.33,136.6
"2009-02-14 00:40:00",628269,9.82,177.3,3.11,0.643,2.483,98.29559,-5.042,-3.829,73.19,0,109.2,13.71,-4.31,139.3
"2009-02-14 00:40:30",628270,9.73,178.2,4.242,0.542,2.641,98.29959,-5.032,-3.823,72.76,0,109.2,13.72,-4.30,140.2
"2009-02-14 00:41:00",628271,9.68,182.9,4.817,0.508,2.834,98.31489,-4.993,-3.831,72.84,0,109.2,13.72,-4.26,144.9
"2009-02-14 00:41:30",628272,9.87,185.5,3.988,0.63,2.657,98.32424,-4.969,-3.777,73.62,0,109.2,13.71,-4.23,147.5
"2009-02-14 00:42:00",628273,10.02,189.3,3.921,0.338,2.655,98.34325,-4.921,-3.767,74.24,0,109.2,13.71,-4.19,151.3
"2009-02-14 00:42:30",628274,9.64,192.6,3.901,0.63,2.478,98.36336,-4.869,-3.708,74.65,0,109.2,13.71,-4.13,154.6
"2009-02-14 00:43:00",628275,9.27,193.8,3.415,0.683,2.279,98.38858,-4.805,-3.689,74.79,0,109.2,13.71,-4.07,155.8
"2009-02-14 00:43:30",628276,9.28,193.7,3.827,0.649,2.264,98.41554,-4.736,-3.64,74.76,0,109.2,13.71,-4.00,155.7
"2009-02-14 00:44:00",628277,9.6,192.3,4.128,0.305,2.177,98.4416,-4.67,-3.584,74.65,0,109.2,13.71,-3.93,154.3
"2009-02-14 00:44:30",628278,9.38,193.6,4.073,0.67,2.242,98.45522,-4.635,-3.548,74.51,0,109.2,13.71,-3.90,155.6
"2009-02-14 00:45:00",628279,9.51,189,4.044,0.735,1.936,98.47365,-4.588,-3.473,74.26,0,109.2,13.71,-3.85,151.0
"2009-02-14 00:45:30",628280,9.38,187.1,3.382,0.684,1.873,98.48725,-4.554,-3.463,73.87,0,109.2,13.71,-3.82,149.1
"2009-02-14 00:46:00",628281,9.14,182,3.934,0.362,1.861,98.48698,-4.555,-3.435,73.39,0,109.2,13.71,-3.82,144.0
"2009-02-14 00:46:30",628282,9.38,176.7,4.521,0.668,1.814,98.48923,-4.549,-3.409,72.5,0,109.2,13.71,-3.81,138.7
"2009-02-14 00:47:00",628283,9.58,173,4.293,0.584,1.79,98.48753,-4.553,-3.428,70.99,0,109.2,13.71,-3.82,135.0
"2009-02-14 00:47:30",628284,9.58,173.3,4.448,0.625,2.194,98.48725,-4.554,-3.432,70.3,0,109.2,13.71,-3.82,135.3
"2009-02-14 00:48:00",628285,9.47,174.9,3.664,0.544,2.192,98.48669,-4.555,-3.411,70.25,0,109.2,13.71,-3.82,136.9
"2009-02-14 00:48:30",628286,9.46,177.1,4.532,0.574,2.293,98.485,-4.56,-3.395,70.44,0,109.3,13.72,-3.82,139.1
"2009-02-14 00:49:00",628287,9.36,176.4,5.454,0.728,2.278,98.47677,-4.581,-3.408,70.67,0,109.2,13.72,-3.84,138.4
"2009-02-14 00:49:30",628288,9.22,177.2,3.992,0.543,2.419,98.4708,-4.596,-3.402,70.71,0,109.2,13.72,-3.86,139.2
"2009-02-14 00:50:00",628289,9.01,178.4,3.989,0.537,2.321,98.4694,-4.599,-3.416,70.71,0,109.2,13.72,-3.86,140.4
"2009-02-14 00:50:30",628290,9.31,179,4.422,0.531,2.378,98.46769,-4.604,-3.378,71.01,0,109.2,13.72,-3.87,141.0
"2009-02-14 00:51:00",628291,9.29,178.4,4.325,0.452,2.431,98.46884,-4.601,-3.398,71.11,0,109.2,13.71,-3.86,140.4
"2009-02-14 00:51:30",628292,9.47,177.2,3.713,0.642,2.377,98.46911,-4.6,-3.396,71.03,0,109.3,13.71,-3.86,139.2
"2009-02-14 00:52:00",628293,9.39,178.8,3.698,0.711,2.223,98.4677,-4.604,-3.381,71.01,0,109.2,13.71,-3.87,140.8
"2009-02-14 00:52:30",628294,10.12,176.1,4.026,0.565,2.187,98.46516,-4.61,-3.407,70.85,0,109.2,13.71,-3.87,138.1
"2009-02-14 00:53:00",628295,9.97,176.9,4.222,0.58,2.443,98.46231,-4.617,-3.398,70.62,0,109.2,13.71,-3.88,138.9
"2009-02-14 00:53:30",628296,9.83,177.9,4.145,0.487,2.779,98.4558,-4.634,-3.398,70.54,0,109.2,13.71,-3.90,139.9
"2009-02-14 00:54:00",628297,9.95,178.1,3.425,0.637,2.4,98.45324,-4.64,-3.413,70.18,0,109.2,13.71,-3.90,140.1
"2009-02-14 00:54:30",628298,10.17,177.6,3.856,0.536,2.464,98.45296,-4.641,-3.402,69.65,0,109.3,13.71,-3.91,139.6
"2009-02-14 00:55:00",628299,10.29,179.9,4.36,0.524,2.735,98.45267,-4.642,-3.419,69.5,0,109.3,13.71,-3.91,141.9
"2009-02-14 00:55:30",628300,10.26,180.4,4.181,0.506,2.839,98.45323,-4.64,-3.413,69.46,0,109.2,13.71,-3.90,142.4
"2009-02-14 00:56:00",628301,10.21,180.5,3.459,0.509,2.819,98.45267,-4.642,-3.404,69.27,0,109.2,13.71,-3.91,142.5
"2009-02-14 00:56:30",628302,10.33,180.2,3.831,0.563,2.914,98.45919,-4.625,-3.399,69.09,0,109.2,13.71,-3.89,142.2
"2009-02-14 00:57:00",628303,10.58,180.1,3.785,0.626,2.936,98.46401,-4.613,-3.396,68.79,0,109.2,13.71,-3.88,142.1
"2009-02-14 00:57:30",628304,10.52,179.6,3.716,0.577,2.971,98.47023,-4.597,-3.393,68.29,0,109.3,13.72,-3.86,141.6
"2009-02-14 00:58:00",628305,10.78,179.5,3.199,0.452,3.091,98.47987,-4.573,-3.376,67.7,0,109.2,13.72,-3.84,141.5
"2009-02-14 00:58:30",628306,10.52,180.7,3.831,0.619,3.099,98.48641,-4.556,-3.359,67.67,0,109.2,13.72,-3.82,142.7
"2009-02-14 00:59:00",628307,10.52,180,3.972,0.63,3.068,98.48669,-4.555,-3.351,67.78,0,109.2,13.72,-3.82,142.0
"2009-02-14 00:59:30",628308,10.06,180.7,3.85,0.649,3.161,98.48811,-4.552,-3.336,68.08,0,109.2,13.72,-3.82,142.7
"2009-02-14 01:00:00",628309,10.33,180.2,3.688,0.529,3.217,98.49831,-4.526,-3.319,68.02,0,109.3,13.72,-3.79,142.2
"2009-02-14 01:00:30",628310,10.21,180.8,3.695,0.629,3.031,98.50369,-4.512,-3.319,68.07,0,109.2,13.72,-3.78,142.8
"2009-02-14 01:01:00",628311,10.14,181.2,3.717,0.629,2.995,98.50768,-4.502,-3.286,68.07,0,109.2,13.72,-3.77,143.2
"2009-02-14 01:01:30",628312,10.08,181.1,3.701,0.655,2.894,98.51872,-4.474,-3.302,67.9,0,109.2,13.72,-3.74,143.1
"2009-02-14 01:02:00",628313,10.16,181.3,3.754,0.38,3.028,98.52127,-4.467,-3.302,67.86,0,109.2,13.72,-3.73,143.3
"2009-02-14 01:02:30",628314,10.22,182.4,3.64,0.632,2.793,98.52155,-4.467,-3.273,68.66,0,109.3,13.72,-3.73,144.4
"2009-02-14 01:03:00",628315,10.23,183.2,3.736,0.542,2.903,98.52015,-4.47,-3.262,69.39,0,109.3,13.72,-3.73,145.2
"2009-02-14 01:03:30",628316,10.16,182.9,4.045,0.526,3.021,98.52127,-4.467,-3.264,69.39,0,109.3,13.72,-3.73,144.9
"2009-02-14 01:04:00",628317,10.1,183.6,3.641,0.518,2.944,98.52071,-4.469,-3.253,69.79,0,109.2,13.72,-3.73,145.6
"2009-02-14 01:04:30",628318,10.15,184.2,4.225,0.655,2.886,98.52127,-4.467,-3.225,69.35,0,109.2,13.72,-3.73,146.2
"2009-02-14 01:05:00",628319,10.49,186,3.678,0.446,2.762,98.52099,-4.468,-3.227,69.14,0,109.3,13.72,-3.73,148.0
"2009-02-14 01:05:30",628320,10.59,186.1,4.174,0.63,2.863,98.52099,-4.468,-3.215,69.47,0,109.2,13.72,-3.73,148.1
"2009-02-14 01:06:00",628321,10.67,186.4,3.116,0.728,2.726,98.52099,-4.468,-3.208,70.04,0,109.2,13.72,-3.73,148.4
"2009-02-14 01:06:30",628322,10.83,185.4,4.186,0.544,2.677,98.52099,-4.468,-3.217,70.51,0,109.3,13.72,-3.73,147.4
"2009-02-14 01:07:00",628323,10.95,185.6,4.268,0.582,2.694,98.52099,-4.468,-3.228,70.86,0,109.3,13.72,-3.73,147.6
"2009-02-14 01:07:30",628324,10.81,186.1,4.125,0.538,2.695,98.52071,-4.469,-3.218,70.93,0,109.3,13.72,-3.73,148.1
"2009-02-14 01:08:00",628325,10.83,186.5,3.583,0.357,2.746,98.52127,-4.467,-3.232,70.96,0,109.3,13.71,-3.73,148.5
"2009-02-14 01:08:30",628326,10.84,186.2,4.085,0.552,2.599,98.52043,-4.469,-3.238,71.04,0,109.3,13.71,-3.73,148.2
"2009-02-14 01:09:00",628327,10.72,185.4,4.096,0.65,2.712,98.5125,-4.49,-3.224,71.05,0,109.3,13.71,-3.75,147.4
"2009-02-14 01:09:30",628328,11.04,187.2,4.112,0.602,2.7,98.50398,-4.511,-3.22,70.93,0,109.3,13.71,-3.78,149.2
"2009-02-14 01:10:00",628329,10.93,189.4,3.171,0.613,2.494,98.50058,-4.52,-3.232,71.06,0,109.3,13.71,-3.78,151.4
"2009-02-14 01:10:30",628330,10.99,187.4,3.735,0.684,2.521,98.48952,-4.548,-3.237,71.29,0,109.3,13.71,-3.81,149.4
"2009-02-14 01:11:00",628331,11.29,189,3.726,0.631,2.49,98.48669,-4.555,-3.258,71.55,0,109.3,13.71,-3.82,151.0
"2009-02-14 01:11:30",628332,11.16,188.8,3.779,0.611,2.464,98.47818,-4.577,-3.281,71.59,0,109.3,13.71,-3.84,150.8
"2009-02-14 01:12:00",628333,11.07,188.6,3.68,0.379,2.676,98.46825,-4.602,-3.29,71.48,0,109.2,13.71,-3.87,150.6
"2009-02-14 01:12:30",628334,10.94,189.5,4.137,0.549,2.503,98.45947,-4.625,-3.324,71.52,0,109.2,13.71,-3.89,151.5
"2009-02-14 01:13:00",628335,10.73,188.5,4.143,0.539,2.614,98.45296,-4.641,-3.333,71.74,0,109.2,13.72,-3.91,150.5
"2009-02-14 01:13:30",628336,10.39,187.1,4.499,0.535,2.818,98.45239,-4.643,-3.343,71.76,0,109.3,13.72,-3.91,149.1
"2009-02-14 01:14:00",628337,10.4,186.9,3.725,0.463,2.78,98.45407,-4.638,-3.349,71.59,0,109.2,13.72,-3.90,148.9
"2009-02-14 01:14:30",628338,10.41,187.6,4.423,0.524,2.606,98.45323,-4.64,-3.343,71.44,0,109.3,13.72,-3.90,149.6
"2009-02-14 01:15:00",628339,9.98,184.5,4.426,0.634,2.816,98.45464,-4.637,-3.357,71.51,0,109.3,13.72,-3.90,146.5
"2009-02-14 01:15:30",628340,10.07,185.6,4.18,0.557,2.72,98.45918,-4.625,-3.362,71.01,0,109.3,13.72,-3.89,147.6
"2009-02-14 01:16:00",628341,10.21,185.9,3.474,0.493,2.854,98.46543,-4.609,-3.349,71,0,109.3,13.72,-3.87,147.9
"2009-02-14 01:16:30",628342,10.07,184.3,4.292,0.595,2.86,98.47023,-4.597,-3.351,70.65,0,109.3,13.72,-3.86,146.3
"2009-02-14 01:17:00",628343,10.16,184.8,3.725,0.656,3.093,98.48724,-4.554,-3.346,70.05,0,109.3,13.72,-3.82,146.8
"2009-02-14 01:17:30",628344,10.23,185.2,3.711,0.616,3.109,98.48698,-4.555,-3.329,69.49,0,109.3,13.72,-3.82,147.2
"2009-02-14 01:18:00",628345,10.42,185.8,3.168,0.624,2.932,98.49773,-4.527,-3.321,69.04,0,109.3,13.72,-3.79,147.8
"2009-02-14 01:18:30",628346,10.75,187,3.953,0.72,2.792,98.50652,-4.505,-3.299,68.85,0,109.2,13.72,-3.77,149.0
"2009-02-14 01:19:00",628347,10.79,186.6,4.121,0.6,2.761,98.52013,-4.47,-3.288,69.12,0,109.3,13.72,-3.73,148.6
"2009-02-14 01:19:30",628348,10.23,184.1,4.02,0.778,3.034,98.52071,-4.469,-3.269,68.15,0,109.3,13.72,-3.73,146.1
"2009-02-14 01:20:00",628349,10.81,187,3.395,0.624,2.81,98.53006,-4.445,-3.244,67.61,0,109.2,13.72,-3.71,149.0
"2009-02-14 01:20:30",628350,10.67,190.5,4.398,0.549,2.732,98.55075,-4.392,-3.211,68.98,0,109.3,13.72,-3.66,152.5
"2009-02-14 01:21:00",628351,10.28,194.8,4.348,0.522,2.753,98.55727,-4.376,-3.198,70.55,0,109.3,13.72,-3.64,156.8
"2009-02-14 01:21:30",628352,9.86,197.8,4.179,0.557,2.827,98.56437,-4.357,-3.173,71.16,0,109.3,13.72,-3.62,159.8
"2009-02-14 01:22:00",628353,10.46,201.3,3.853,0.51,2.718,98.56919,-4.345,-3.163,71.68,0,109.3,13.72,-3.61,163.3
"2009-02-14 01:22:30",628354,10.55,201,3.667,0.477,2.796,98.56862,-4.347,-3.147,72.06,0,109.3,13.72,-3.61,163.0
"2009-02-14 01:23:00",628355,10.54,197.4,4.105,0.497,2.903,98.57003,-4.343,-3.126,70.69,0,109.3,13.72,-3.61,159.4
"2009-02-14 01:23:30",628356,10.54,197.9,3.802,0.728,2.926,98.57004,-4.343,-3.158,69.93,0,109.3,13.71,-3.61,159.9
"2009-02-14 01:24:00",628357,10.47,197.7,2.674,0.607,2.804,98.56947,-4.344,-3.143,69.77,0,109.3,13.71,-3.61,159.7
"2009-02-14 01:24:30",628358,10.49,195.5,4.17,0.633,3.035,98.56833,-4.347,-3.139,69.75,0,109.3,13.71,-3.61,157.5
"2009-02-14 01:25:00",628359,10.52,195.2,3.322,0.801,2.86,98.56522,-4.355,-3.145,69.56,0,109.3,13.71,-3.62,157.2
"2009-02-14 01:25:30",628360,10.58,195.4,3.299,0.706,2.931,98.56521,-4.355,-3.161,69.3,0,109.3,13.71,-3.62,157.4
"2009-02-14 01:26:00",628361,10.83,195.7,3.734,0.463,3.219,98.56351,-4.36,-3.15,69.01,0,109.3,13.71,-3.62,157.7
"2009-02-14 01:26:30",628362,10.84,194,4.085,0.509,3.161,98.56267,-4.362,-3.142,68.13,0,109.3,13.71,-3.63,156.0
"2009-02-14 01:27:00",628363,10.81,193.9,3.719,0.603,3.19,98.56436,-4.357,-3.165,67.57,0,109.3,13.71,-3.62,155.9
"2009-02-14 01:27:30",628364,10.82,193.4,3.695,0.596,3.188,98.56862,-4.347,-3.149,67.39,0,109.3,13.71,-3.61,155.4
"2009-02-14 01:28:00",628365,10.84,193.8,3.343,0.546,3.172,98.57032,-4.342,-3.14,67.31,0,109.3,13.71,-3.61,155.8
"2009-02-14 01:28:30",628366,10.85,192.9,4.041,0.523,3.022,98.57259,-4.337,-3.126,67.93,0,109.3,13.72,-3.60,154.9
"2009-02-14 01:29:00",628367,10.78,192,3.941,0.72,3.071,98.58193,-4.313,-3.119,68.05,0,109.3,13.72,-3.58,154.0
"2009-02-14 01:29:30",628368,11.12,191.3,4.083,0.49,2.959,98.58846,-4.296,-3.109,68.69,0,109.3,13.72,-3.56,153.3
"2009-02-14 01:30:00",628369,11.22,192.2,3.262,0.452,2.975,98.58931,-4.294,-3.106,69.49,0,109.3,13.72,-3.56,154.2
"2009-02-14 01:30:30",628370,10.93,192.3,3.771,0.69,2.853,98.58903,-4.295,-3.094,69.76,0,109.3,13.72,-3.56,154.3
"2009-02-14 01:31:00",628371,10.91,193,3.693,0.783,2.788,98.58903,-4.295,-3.08,69.83,0,109.3,13.72,-3.56,155.0
"2009-02-14 01:31:30",628372,10.56,193.2,3.346,0.731,2.796,98.58987,-4.293,-3.093,69.82,0,109.3,13.72,-3.56,155.2
"2009-02-14 01:32:00",628373,10.35,194.2,2.533,0.61,2.655,98.58931,-4.294,-3.099,69.73,0,109.3,13.72,-3.56,156.2
"2009-02-14 01:32:30",628374,10.33,193.6,3.175,0.786,2.689,98.58931,-4.294,-3.083,69.79,0,109.3,13.72,-3.56,155.6
"2009-02-14 01:33:00",628375,10.63,192,3.771,0.654,2.731,98.58903,-4.295,-3.104,69.53,0,109.3,13.72,-3.56,154.0
"2009-02-14 01:33:30",628376,10.38,192.6,2.871,0.821,2.486,98.59014,-4.292,-3.124,69.41,0,109.3,13.72,-3.55,154.6
"2009-02-14 01:34:00",628377,10.48,191,2.985,0.618,2.725,98.58846,-4.296,-3.115,69.45,0,109.3,13.72,-3.56,153.0
"2009-02-14 01:34:30",628378,10.31,192,3.502,0.738,2.523,98.58675,-4.3,-3.116,69.49,0,109.3,13.72,-3.56,154.0
"2009-02-14 01:35:00",628379,10.21,191.6,3.14,0.73,2.402,98.58167,-4.313,-3.107,69.53,0,109.3,13.72,-3.58,153.6
"2009-02-14 01:35:30",628380,10.26,191.9,3.837,0.646,2.468,98.57315,-4.335,-3.109,69.49,0,109.3,13.72,-3.60,153.9
"2009-02-14 01:36:00",628381,10.42,192.2,2.319,0.608,2.43,98.57229,-4.337,-3.131,69.63,0,109.3,13.72,-3.60,154.2
"2009-02-14 01:36:30",628382,10.18,190.1,3.968,0.725,2.425,98.57089,-4.341,-3.118,69.89,0,109.3,13.72,-3.60,152.1
"2009-02-14 01:37:00",628383,9.93,191.9,3.303,0.754,2.333,98.56919,-4.345,-3.123,69.99,0,109.3,13.72,-3.61,153.9
"2009-02-14 01:37:30",628384,9.86,191.5,2.424,0.849,2.21,98.56806,-4.348,-3.139,70.09,0,109.3,13.72,-3.61,153.5
"2009-02-14 01:38:00",628385,9.89,193.2,3.195,0.504,2.433,98.56266,-4.362,-3.13,70.15,0,109.3,13.72,-3.63,155.2
"2009-02-14 01:38:30",628386,10.09,192.5,3.758,0.638,2.329,98.5601,-4.368,-3.147,70.29,0,109.3,13.72,-3.63,154.5
"2009-02-14 01:39:00",628387,9.97,192.7,3.538,0.718,2.244,98.55558,-4.38,-3.148,70.41,0,109.3,13.72,-3.64,154.7
"2009-02-14 01:39:30",628388,10.03,192.1,3.195,0.807,2.142,98.55445,-4.383,-3.165,70.58,0,109.3,13.72,-3.65,154.1
"2009-02-14 01:40:00",628389,10.35,193,2.642,0.593,2.355,98.55473,-4.382,-3.17,70.78,0,109.3,13.71,-3.65,155.0
"2009-02-14 01:40:30",628390,10.28,191.6,4.197,0.614,2.545,98.55473,-4.382,-3.174,71.14,0,109.3,13.72,-3.65,153.6
"2009-02-14 01:41:00",628391,10.15,191.8,3.727,0.629,2.381,98.55502,-4.381,-3.17,71.38,0,109.3,13.72,-3.64,153.8
"2009-02-14 01:41:30",628392,10.14,191.5,4.073,0.631,2.387,98.55445,-4.383,-3.165,71.49,0,109.3,13.72,-3.65,153.5
"2009-02-14 01:42:00",628393,10.02,191,3.392,0.682,2.275,98.55217,-4.389,-3.176,71.47,0,109.3,13.72,-3.65,153.0
"2009-02-14 01:42:30",628394,9.83,192.8,3.802,0.731,2.275,98.54255,-4.413,-3.183,71.63,0,109.3,13.72,-3.68,154.8
"2009-02-14 01:43:00",628395,9.79,193,3.903,0.691,2.264,98.53716,-4.427,-3.196,71.84,0,109.3,13.71,-3.69,155.0
"2009-02-14 01:43:30",628396,9.93,190.8,4.169,0.706,2.218,98.53828,-4.424,-3.201,71.89,0,109.3,13.71,-3.69,152.8
"2009-02-14 01:44:00",628397,10.04,191.4,2.847,0.624,2.228,98.53687,-4.427,-3.202,71.79,0,109.3,13.71,-3.69,153.4
"2009-02-14 01:44:30",628398,9.57,193.9,3.528,0.721,2.248,98.53545,-4.431,-3.187,71.82,0,109.3,13.71,-3.69,155.9
"2009-02-14 01:45:00",628399,9.48,194,2.915,0.784,2.19,98.53178,-4.44,-3.211,72,0,109.3,13.71,-3.70,156.0
"2009-02-14 01:45:30",628400,9.73,192.5,2.816,0.809,2.099,98.52808,-4.45,-3.216,72.1,0,109.3,13.72,-3.71,154.5
"2009-02-14 01:46:00",628401,9.76,192.9,2.581,0.705,2.212,98.52242,-4.464,-3.225,72.18,0,109.3,13.72,-3.73,154.9
"2009-02-14 01:46:30",628402,9.61,191.7,2.82,0.79,1.909,98.52043,-4.469,-3.242,72.27,0,109.3,13.72,-3.73,153.7